When you browse on this site, cookies collect data to enhance your experience and personalize the content and advertising you see.
Visit our Privacy Policy to learn more. By continuing to use the site, you agree to this use of cookies and data.
  • En España
  • Lista de países
  • Para 7 días
  • Temperatura del agua
  • Mapa Satelital
  • El tiempo en el mapa
  • Informadores
  • user-avatar
    Iniciar sesión

    Tiempo cada hora Petropavlovsk

    Hoy, 17 Junio, Lunes

    Tiempo Temperatura Precipitaciones Viento Presión Humedad
    00:00 +10°C° 0 mm 3 mps 741 mmHg 83%
    01:00 +10°C° 0 mm 3 mps 741 mmHg 85%
    02:00 +9°C° 0 mm 3 mps 741 mmHg 86%
    03:00 +10°C° 0.1 mm 3 mps 741 mmHg 88%
    04:00 +10°C° 0.1 mm 3 mps 741 mmHg 89%
    05:00 +10°C° 0.1 mm 3 mps 741 mmHg 90%
    06:00 +10°C° 1 mm 2 mps 741 mmHg 92%
    07:00 +11°C° 1 mm 1 mps 741 mmHg 94%
    08:00 +11°C° 1 mm 1 mps 741 mmHg 95%
    09:00 +11°C° 1.1 mm 1 mps 741 mmHg 95%
    10:00 +11°C° 1.1 mm 1 mps 740 mmHg 95%
    11:00 +11°C° 1.1 mm 1 mps 740 mmHg 94%
    12:00 +10°C° 0.9 mm 2 mps 740 mmHg 93%
    13:00 +10°C° 0.9 mm 2 mps 740 mmHg 91%
    14:00 +10°C° 0.9 mm 3 mps 740 mmHg 90%
    15:00 +12°C° 0 mm 2 mps 740 mmHg 85%
    16:00 +13°C° 0 mm 2 mps 740 mmHg 80%
    17:00 +14°C° 0 mm 1 mps 740 mmHg 75%
    18:00 +13°C° 0 mm 1 mps 740 mmHg 78%
    19:00 +13°C° 0 mm 1 mps 740 mmHg 82%
    20:00 +12°C° 0 mm 1 mps 740 mmHg 85%
    21:00 +10°C° 0 mm 2 mps 740 mmHg 87%
    22:00 +9°C° 0 mm 2 mps 740 mmHg 88%
    23:00 +8°C° 0 mm 3 mps 740 mmHg 90%

    Mañana, 18 Junio, Martes

    Tiempo Temperatura Precipitaciones Viento Presión Humedad
    00:00 +8°C° 0 mm 3 mps 740 mmHg 90%
    01:00 +7°C° 0 mm 3 mps 740 mmHg 90%
    02:00 +7°C° 0 mm 2 mps 740 mmHg 91%
    03:00 +7°C° 0 mm 2 mps 740 mmHg 90%
    04:00 +7°C° 0 mm 3 mps 740 mmHg 89%
    05:00 +7°C° 0 mm 3 mps 740 mmHg 88%
    06:00 +8°C° 0 mm 3 mps 740 mmHg 83%
    07:00 +10°C° 0 mm 3 mps 741 mmHg 77%
    08:00 +12°C° 0 mm 3 mps 741 mmHg 72%
    09:00 +14°C° 0 mm 3 mps 741 mmHg 67%
    10:00 +16°C° 0 mm 3 mps 741 mmHg 63%
    11:00 +17°C° 0 mm 3 mps 741 mmHg 58%
    12:00 +18°C° 0.1 mm 3 mps 741 mmHg 57%
    13:00 +18°C° 0.1 mm 3 mps 741 mmHg 56%
    14:00 +19°C° 0.1 mm 3 mps 741 mmHg 55%
    15:00 +19°C° 0.3 mm 4 mps 740 mmHg 58%
    16:00 +18°C° 0.3 mm 4 mps 740 mmHg 62%
    17:00 +18°C° 0.3 mm 4 mps 740 mmHg 65%
    18:00 +17°C° 0.4 mm 3 mps 740 mmHg 71%
    19:00 +16°C° 0.4 mm 3 mps 741 mmHg 77%
    20:00 +14°C° 0.4 mm 3 mps 741 mmHg 82%
    21:00 +14°C° 0.2 mm 2 mps 741 mmHg 85%
    22:00 +13°C° 0.2 mm 2 mps 741 mmHg 88%
    23:00 +12°C° 0.2 mm 2 mps 741 mmHg 90%

    Pasado mañana, 19 Junio, Miércoles

    Tiempo Temperatura Precipitaciones Viento Presión Humedad
    00:00 +10°C° 0 mm 2 mps 741 mmHg 92%
    01:00 +9°C° 0 mm 3 mps 742 mmHg 93%
    02:00 +9°C° 0 mm 3 mps 742 mmHg 95%
    03:00 +9°C° 0 mm 3 mps 742 mmHg 94%
    04:00 +8°C° 0 mm 3 mps 743 mmHg 93%
    05:00 +8°C° 0 mm 3 mps 743 mmHg 92%
    06:00 +9°C° 0 mm 3 mps 743 mmHg 87%
    07:00 +11°C° 0 mm 3 mps 744 mmHg 83%
    08:00 +12°C° 0 mm 3 mps 744 mmHg 78%
    09:00 +13°C° 0 mm 3 mps 744 mmHg 71%
    10:00 +14°C° 0 mm 3 mps 745 mmHg 64%
    11:00 +17°C° 0 mm 4 mps 745 mmHg 57%
    12:00 +17°C° 0 mm 3 mps 745 mmHg 56%
    13:00 +18°C° 0 mm 3 mps 745 mmHg 56%
    14:00 +18°C° 0 mm 3 mps 745 mmHg 56%
    15:00 +18°C° 0.1 mm 3 mps 745 mmHg 59%
    16:00 +18°C° 0.1 mm 3 mps 745 mmHg 63%
    17:00 +18°C° 0.1 mm 3 mps 746 mmHg 66%
    18:00 +17°C° 0.1 mm 3 mps 746 mmHg 70%
    19:00 +16°C° 0.1 mm 2 mps 746 mmHg 74%
    20:00 +16°C° 0.1 mm 2 mps 746 mmHg 77%
    21:00 +15°C° 0.1 mm 2 mps 746 mmHg 81%
    22:00 +14°C° 0.1 mm 2 mps 747 mmHg 84%
    23:00 +13°C° 0.1 mm 2 mps 747 mmHg 87%

    20 Junio, Jueves

    Tiempo Temperatura Precipitaciones Viento Presión Humedad
    00:00 +12°C° 0 mm 2 mps 747 mmHg 89%
    01:00 +10°C° 0 mm 2 mps 747 mmHg 90%
    02:00 +10°C° 0 mm 2 mps 747 mmHg 91%
    03:00 +10°C° 0 mm 2 mps 747 mmHg 90%
    04:00 +10°C° 0 mm 2 mps 748 mmHg 90%
    05:00 +10°C° 0 mm 2 mps 748 mmHg 89%
    06:00 +12°C° 0 mm 2 mps 748 mmHg 82%
    07:00 +14°C° 0 mm 2 mps 748 mmHg 76%
    08:00 +16°C° 0 mm 1 mps 749 mmHg 69%
    09:00 +18°C° 0 mm 1 mps 749 mmHg 62%
    10:00 +19°C° 0 mm 1 mps 749 mmHg 55%
    11:00 +20°C° 0 mm 1 mps 749 mmHg 48%
    12:00 +21°C° 0 mm 1 mps 749 mmHg 47%
    13:00 +22°C° 0 mm 1 mps 749 mmHg 45%
    14:00 +20°C° 0 mm 0 mps 749 mmHg 43%
    15:00 +22°C° 0 mm 1 mps 749 mmHg 44%
    16:00 +22°C° 0 mm 1 mps 749 mmHg 44%
    17:00 +22°C° 0 mm 1 mps 749 mmHg 45%
    18:00 +21°C° 0 mm 1 mps 749 mmHg 51%
    19:00 +20°C° 0 mm 1 mps 748 mmHg 58%
    20:00 +18°C° 0 mm 2 mps 748 mmHg 64%
    21:00 +17°C° 0 mm 2 mps 748 mmHg 64%
    22:00 +17°C° 0 mm 3 mps 748 mmHg 63%
    23:00 +16°C° 0 mm 3 mps 748 mmHg 62%

    21 Junio, Viernes

    Tiempo Temperatura Precipitaciones Viento Presión Humedad
    00:00 +16°C° 0 mm 3 mps 747 mmHg 64%
    01:00 +15°C° 0 mm 4 mps 747 mmHg 66%
    02:00 +15°C° 0 mm 4 mps 747 mmHg 68%
    03:00 +15°C° 0.2 mm 4 mps 747 mmHg 75%
    04:00 +15°C° 0.2 mm 4 mps 746 mmHg 81%
    05:00 +15°C° 0.2 mm 4 mps 746 mmHg 87%
    06:00 +17°C° 0.2 mm 4 mps 746 mmHg 85%
    07:00 +18°C° 0.2 mm 4 mps 746 mmHg 83%
    08:00 +19°C° 0.2 mm 4 mps 746 mmHg 82%
    09:00 +20°C° 0.7 mm 4 mps 746 mmHg 77%
    10:00 +21°C° 0.7 mm 4 mps 746 mmHg 72%
    11:00 +22°C° 0.7 mm 3 mps 746 mmHg 67%
    12:00 +22°C° 0.4 mm 4 mps 745 mmHg 65%
    13:00 +23°C° 0.4 mm 4 mps 745 mmHg 63%
    14:00 +23°C° 0.4 mm 4 mps 745 mmHg 61%
    15:00 +23°C° 0.9 mm 4 mps 745 mmHg 64%
    16:00 +22°C° 0.9 mm 4 mps 745 mmHg 67%
    17:00 +21°C° 0.9 mm 4 mps 745 mmHg 70%
    18:00 +20°C° 0.4 mm 4 mps 745 mmHg 74%
    19:00 +19°C° 0.4 mm 4 mps 745 mmHg 78%
    20:00 +18°C° 0.4 mm 4 mps 745 mmHg 82%
    21:00 +15°C° 0 mm 4 mps 745 mmHg 85%
    22:00 +14°C° 0 mm 4 mps 746 mmHg 88%
    23:00 +12°C° 0 mm 4 mps 746 mmHg 90%

    22 Junio, Sábado

    Tiempo Temperatura Precipitaciones Viento Presión Humedad
    00:00 +12°C° 0 mm 4 mps 746 mmHg 91%
    01:00 +11°C° 0 mm 4 mps 746 mmHg 92%
    02:00 +9°C° 0 mm 5 mps 746 mmHg 92%
    03:00 +8°C° 0 mm 5 mps 747 mmHg 92%
    04:00 +8°C° 0 mm 5 mps 747 mmHg 92%
    05:00 +7°C° 0 mm 5 mps 747 mmHg 92%
    06:00 +8°C° 0 mm 6 mps 747 mmHg 90%
    07:00 +9°C° 0 mm 6 mps 748 mmHg 88%
    08:00 +9°C° 0 mm 6 mps 748 mmHg 86%
    09:00 +10°C° 0.1 mm 6 mps 748 mmHg 83%
    10:00 +11°C° 0.1 mm 7 mps 748 mmHg 81%
    11:00 +12°C° 0.1 mm 7 mps 749 mmHg 78%
    12:00 +14°C° 0.2 mm 7 mps 749 mmHg 77%
    13:00 +14°C° 0.2 mm 6 mps 749 mmHg 76%
    14:00 +15°C° 0.2 mm 6 mps 749 mmHg 74%
    15:00 +15°C° 0.3 mm 6 mps 749 mmHg 74%
    16:00 +16°C° 0.3 mm 6 mps 750 mmHg 73%
    17:00 +16°C° 0.3 mm 6 mps 750 mmHg 72%
    18:00 +15°C° 0.2 mm 5 mps 750 mmHg 74%
    19:00 +15°C° 0.2 mm 4 mps 750 mmHg 77%
    20:00 +14°C° 0.2 mm 3 mps 750 mmHg 80%
    21:00 +13°C° 0 mm 3 mps 750 mmHg 81%
    22:00 +11°C° 0 mm 3 mps 750 mmHg 81%
    23:00 +10°C° 0 mm 3 mps 750 mmHg 82%
    Mostrar más